Temp
24 24 24 24 24 24 24 25 25 25 25 25 25 25 24 24 24 24 24 24 25 24 24 24 24 24 24 23 23 23 23 24 24 24 24 24 24 24 25 25 25 25
24 24 24 24 24 24 24 25 25 25 25 25 25 25 25 25 24 24 24 24 24 24 24 24 24 24 23 23 23 23 23 24 24 24 24 24 24 24 24 25 25 24
24 24 24 24 24 24 24 24 25 25 25 25 25 25 25 25 24 24 24 24 24 24 24 24 24 24 23 23 23 23 23 23 24 23 24 24 24 24 24 24 25 25
24 24 24 24 24 24 24 24 24 25 25 25 25 25 25 25 25 24 24 24 24 24 24 24 24 24 24 23 24 23 23 23 24 24 23 23 23 23 24 24 24 25
24 24 24 24 24 24 24 24 24 24 24 25 25 25 25 25 25 24 24 24 24 24 24 24 24 24 24 24 24 23 23 24 24 24 23 23 23 24 24 24 24 24
24 24 24 24 24 25 24 24 24 24 24 24 25 25 25 25 25 25 25 25 24 24 24 24 24 24 24 24 24 24 24 24 24 23 23 23 24 24 24 24 24 24
24 24 24 24 24 24 25 24 24 25 25 24 24 25 25 25 25 25 25 25 24 24 24 24 24 24 24 24 24 24 24 24 24 23 23 23 23 24 24 24 24 24
24 24 24 24 24 24 24 24 24 24 25 25 24 25 25 25 24 24 24 25 24 24 24 24 24 24 24 24 24 24 24 24 24 24 23 23 23 23 23 24 24 24
24 24 24 24 24 24 24 25 24 24 24 24 24 24 24 24 24 24 24 25 24 24 24 24 24 24 24 24 24 24 24 24 24 24 23 23 24 24 24 24 24 24
24 24 24 24 24 24 24 25 25 24 24 24 24 24 24 24 25 24 24 25 24 24 24 24 24 24 24 24 24 24 24 24 24 24 24 24 24 24 24 24 24 24
24 24 24 24 24 25 25 25 25 25 24 24 24 24 24 24 24 24 24 25 24 24 24 24 24 24 24 24 24 24 24 24 24 24 24 24 24 24 24 24 24 24
23 24 24 24 24 24 25 25 25 25 24 24 24 24 24 24 24 24 24 24 24 24 24 24 24 24 24 24 24 24 24 24 24 24 24 24 24 24 24 24 24 24
23 23 24 24 24 24 25 25 25 25 25 24 24 24 24 24 24 24 24 24 24 24 24 24 25 25 25 25 24 24 24 24 24 24 24 24 24 24 24 24 24 24
24 23 23 24 24 23 24 24 24 24 24 24 24 24 24 25 25 25 24 24 24 24 24 24 25 25 24 25 25 24 24 24 24 24 24 24 24 24 24 24 24 25
23 23 23 23 23 23 23 23 24 24 24 24 24 24 25 25 25 25 25 25 24 24 24 25 24 24 24 25 25 25 24 24 24 24 24 24 24 24 24 24 24 25
23 23 23 23 23 23 23 23 23 24 24 24 24 24 24 24 25 25 25 25 25 25 25 24 24 25 25 25 25 25 24 24 24 24 24 24 24 24 24 25 25 25
22 22 22 22 23 23 23 23 23 23 23 24 24 24 24 24 24 24 25 25 25 25 25 25 24 25 25 25 25 25 25 24 24 24 24 24 24 24 24 25 25 25
21 21 22 22 22 22 22 23 23 23 23 23 23 24 24 24 24 24 24 25 25 25 25 25 25 25 25 25 25 25 25 25 24 24 25 24 24 24 24 25 25 25
21 21 22 21 21 20 21 22 22 23 23 23 23 23 23 23 24 24 24 24 24 24 25 25 25 25 25 26 25 25 25 24 24 24 24 25 24 24 24 24 24 24
20 20 20 20 20 20 20 20 21 22 22 22 22 23 23 23 23 23 23 24 24 24 24 24 25 25 25 25 25 25 24 24 24 23 24 24 24 24 24 24 24 24
20 20 19 20 20 20 20 20 20 21 22 22 22 21 22 22 23 23 23 23 23 24 24 24 24 24 24 24 24 24 24 24 23 23 23 24 24 24 24 24 24 24
19 19 19 19 19 19 19 19 19 19 21 21 20 20 20 20 21 22 22 22 23 23 23 23 23 23 23 22 22 23 23 23 23 23 23 23 24 24 24 24 24 24
19 19 19 19 19 19 19 19 18 19 19 19 18 19 19 19 19 20 20 20 21 22 22 23 23 24 24 23 21 22 22 22 22 22 22 23 23 23 23 23 24 24
18 19 19 19 19 19 19 18 18 19 19 18 18 18 19 19 19 19 19 20 20 20 21 22 22 23 24 23 21 21 21 22 22 22 22 22 22 22 23 23 23 23
18 18 18 18 18 19 18 18 19 19 18 18 18 18 19 19 19 19 20 20 20 19 19 20 21 22 22 22 21 21 21 21 21 21 21 21 22 22 22 22 22 23
18 18 18 18 18 18 18 18 18 19 18 18 18 19 19 19 19 19 19 19 20 20 19 19 20 20 21 21 20 20 20 20 20 20 21 21 21 21 22 22 22 22
Height
841 843 845 847 848 850 851 852 853 854 855 856 857 858 859 860 861 862 862 863 864 865 866 867 867 868 868 869 869 870 870 870 871 871 870 870 870 870 870 870 870 870
839 841 843 845 846 848 849 850 852 853 854 855 856 857 858 859 860 860 861 862 863 864 865 866 866 867 867 868 868 869 869 869 870 870 869 869 870 870 870 870 870 870
837 839 841 843 844 846 847 848 850 851 852 853 854 855 857 857 858 859 860 861 862 863 864 864 865 866 866 867 867 868 868 868 869 869 868 868 869 869 869 869 869 869
836 837 839 841 842 844 845 847 848 849 850 851 853 854 855 856 857 858 858 859 860 861 862 863 864 864 865 865 866 866 867 867 867 867 867 867 867 867 868 868 868 868
834 835 837 839 840 842 843 845 846 847 848 850 851 852 853 854 855 856 857 858 859 860 861 861 862 863 864 864 864 865 865 866 866 866 866 866 866 866 866 867 866 867
832 833 835 836 838 840 841 843 844 845 846 848 849 850 851 852 853 854 855 856 857 858 859 860 861 861 862 862 863 863 864 864 864 864 864 864 865 865 865 865 865 865
830 831 833 834 836 838 839 840 842 843 845 846 847 848 849 850 851 852 854 855 856 857 857 858 859 859 860 861 861 862 862 862 862 863 863 863 863 863 863 863 863 863
828 829 830 832 834 836 837 838 840 841 842 844 845 846 847 848 850 851 852 853 854 855 855 856 857 857 858 859 859 860 860 860 861 861 861 861 861 861 862 862 862 862
826 827 828 830 832 834 835 836 838 839 840 842 843 845 845 846 848 849 850 850 851 852 853 854 855 855 856 857 857 858 858 858 859 859 859 859 859 860 860 860 860 860
825 826 827 828 829 831 832 834 836 837 838 840 841 843 843 844 845 846 847 848 849 850 851 851 852 853 854 854 855 856 856 856 857 857 857 857 858 858 858 858 859 858
824 825 826 826 827 829 830 832 833 835 836 837 839 840 841 842 843 844 845 845 846 847 848 849 850 850 851 852 853 853 854 854 855 855 855 855 856 856 856 856 857 857
824 825 825 824 825 827 828 829 831 832 834 835 836 838 839 840 841 841 842 843 844 845 845 846 847 847 848 849 850 851 851 852 852 853 853 853 854 854 854 854 854 854
820 822 824 824 824 824 826 827 828 830 831 832 834 835 836 838 838 839 840 841 841 842 843 844 844 844 845 846 847 848 849 849 850 850 851 851 852 852 852 852 852 852
814 817 819 821 822 822 824 825 826 828 829 830 832 833 834 835 836 837 838 838 839 840 841 841 841 842 842 843 844 845 846 847 847 848 849 849 849 850 850 850 850 850
812 815 816 817 818 819 821 822 824 825 827 828 829 831 832 833 834 835 836 836 837 838 838 839 839 840 840 840 841 842 843 844 845 845 846 847 847 847 848 848 848 848
809 812 813 814 814 815 817 819 821 823 824 825 826 828 830 831 832 833 834 834 835 835 836 837 837 837 837 838 839 840 841 841 842 843 843 844 845 845 845 845 845 845
808 811 812 813 812 812 813 815 817 820 821 822 823 825 827 828 830 831 831 832 833 833 834 834 834 834 835 836 837 838 838 839 839 840 840 841 842 842 843 843 843 843
806 809 810 811 812 813 812 811 813 816 818 819 821 822 824 825 827 828 828 829 830 830 831 831 832 832 833 834 835 835 836 836 837 837 838 838 839 839 840 840 840 840
802 804 806 808 811 813 814 811 811 812 815 817 819 820 821 823 824 825 826 827 827 827 828 829 829 830 830 831 832 833 834 834 835 835 835 836 836 836 837 837 837 838
801 802 804 805 807 810 813 813 811 810 812 815 818 819 819 820 822 823 824 824 825 825 825 826 827 828 828 829 829 830 831 832 832 833 833 833 833 833 834 834 834 835
798 800 802 803 804 806 810 812 812 809 809 812 816 817 819 820 820 821 821 822 823 823 824 824 825 825 826 827 827 828 828 829 829 829 830 830 829 829 830 831 831 832
795 797 798 801 803 805 808 811 812 810 810 811 813 816 819 821 821 821 820 821 821 821 822 822 822 822 822 824 826 826 826 826 826 826 827 827 827 827 827 827 828 828
793 795 796 799 801 804 807 810 810 810 810 811 813 815 816 819 822 822 820 820 821 821 820 820 819 819 819 821 824 825 823 823 824 824 824 824 824 824 824 824 824 824
795 796 797 798 800 802 806 808 809 810 811 812 815 815 814 815 819 820 819 819 821 822 821 819 817 816 817 819 822 824 822 821 821 822 822 822 822 822 821 821 821 821
798 798 798 798 799 801 804 806 808 809 811 813 814 814 813 812 814 816 816 817 819 821 821 820 817 815 815 816 819 821 821 820 820 820 820 820 820 819 819 819 818 818
801 801 800 800 800 801 802 804 806 807 810 812 813 813 811 810 812 814 815 816 816 817 819 819 817 815 814 814 816 818 818 818 818 819 819 818 818 817 817 817 816 816
Wind_Speed
25 24 23 21 19 18 17 17 17 17 17 16 15 15 14 14 14 15 16 16 15 14 13 11 10 10 10 9 9 9 9 8 7 7 8 7 7 6 5 5 4 4
26 25 24 22 20 19 18 17 17 18 17 16 16 15 14 13 12 14 15 16 15 14 13 12 12 11 11 11 11 10 10 9 8 7 8 8 7 7 7 6 5 5
28 27 25 23 20 19 18 19 19 19 18 18 17 16 15 14 13 13 14 15 15 14 14 13 13 12 11 11 12 11 10 10 9 8 9 9 8 8 7 7 6 6
29 28 26 22 20 18 18 19 19 19 19 18 18 17 16 16 15 14 14 14 16 15 14 13 13 13 12 11 12 11 11 11 10 9 10 10 9 9 9 8 8 7
30 30 28 24 21 20 19 19 19 18 18 19 18 18 17 17 16 16 15 14 15 16 14 13 13 13 13 12 12 11 11 10 10 11 11 11 10 10 10 9 9 8
30 31 31 28 25 23 21 19 19 18 17 18 18 18 17 17 16 16 16 15 14 14 13 13 13 13 12 13 13 13 12 11 10 11 12 12 11 11 10 9 9 9
29 31 32 30 27 24 22 21 20 19 18 17 17 18 17 17 18 17 16 16 15 14 14 13 14 14 13 13 14 15 14 14 13 13 14 13 12 12 11 10 10 11
27 28 31 30 26 23 22 21 20 20 20 19 17 17 17 18 18 17 17 17 16 15 15 15 15 15 14 14 14 15 15 14 13 13 14 13 13 12 12 11 11 11
24 25 28 29 25 22 21 21 20 20 20 20 18 16 17 18 18 16 17 18 17 17 17 16 16 16 15 15 16 16 16 14 13 12 13 13 13 12 12 11 11 11
21 22 24 25 24 22 22 21 19 18 19 20 18 16 16 17 17 17 17 17 17 18 18 17 16 16 15 15 16 17 16 15 14 14 13 13 13 12 12 12 11 11
19 20 21 22 23 22 22 22 20 18 19 20 19 17 16 16 17 17 17 17 17 17 17 17 17 17 16 16 16 16 16 15 14 14 15 14 14 13 13 12 12 12
18 18 19 21 23 22 21 21 21 19 19 19 19 18 17 16 16 16 17 17 18 17 17 17 17 17 17 17 16 15 16 15 15 15 15 15 14 14 14 13 13 12
23 22 20 20 20 21 20 19 20 19 19 18 18 18 17 16 16 16 16 17 18 18 18 17 17 17 18 18 17 16 16 16 16 15 15 15 15 14 14 14 13 13
27 24 22 21 19 19 19 18 18 18 18 18 17 18 17 17 16 15 16 16 16 17 18 17 18 18 18 18 18 17 17 16 16 16 15 15 15 15 15 15 14 14
24 23 25 25 23 22 22 20 18 17 18 18 18 18 17 17 16 15 15 15 15 16 17 17 17 17 18 18 18 17 17 16 15 15 16 15 15 15 15 15 15 15
26 27 29 28 26 26 25 23 20 18 18 18 19 19 18 17 17 16 15 15 14 15 16 16 16 18 19 18 17 17 17 16 16 16 17 16 16 16 16 16 16 15
23 25 26 25 25 25 25 24 22 20 18 19 19 19 19 20 20 18 17 16 15 15 15 15 16 19 20 19 19 19 19 18 17 17 18 18 17 17 17 16 16 16
22 24 24 23 22 23 24 24 24 22 21 21 20 19 20 21 20 19 19 18 16 16 16 15 15 18 20 19 20 21 20 20 18 16 16 17 17 17 17 17 17 16
25 26 26 23 21 22 23 23 22 22 22 22 21 21 23 23 21 19 20 20 19 18 18 16 15 18 21 21 21 21 21 21 19 16 16 16 16 16 17 17 17 17
22 23 23 22 20 21 23 23 21 20 20 20 19 21 23 22 21 20 21 23 22 21 20 18 16 18 22 23 23 23 22 21 20 19 19 18 17 17 17 17 17 17
21 20 20 21 21 20 21 24 22 22 23 21 18 19 20 20 21 21 21 22 20 17 16 14 12 14 17 21 23 23 20 20 21 21 20 18 18 19 19 19 18 17
21 19 17 18 18 15 15 18 18 18 19 18 14 14 15 17 20 19 18 19 18 17 16 14 13 15 15 17 21 22 20 19 20 20 20 18 18 19 20 21 21 19
16 15 15 16 15 12 11 11 11 10 10 10 9 9 10 12 14 13 11 12 14 16 17 17 16 17 15 14 17 19 18 17 17 17 18 18 18 19 21 23 24 23
12 12 13 14 12 10 7 6 6 5 5 7 9 10 10 10 10 10 9 9 12 14 15 14 11 11 12 11 13 14 12 12 13 13 14 15 16 17 20 22 24 25
11 10 10 9 8 7 5 3 2 3 4 5 7 8 8 6 7 10 11 12 13 15 16 13 9 10 13 13 14 16 13 10 10 10 11 13 13 14 17 19 22 24
13 12 10 8 8 7 5 3 2 3 4 5 6 6 5 4 4 7 9 9 9 9 10 9 8 10 13 13 15 16 15 12 10 9 11 13 13 14 15 16 18 18
Wind_Direction
218 219 222 228 233 236 239 239 236 235 237 236 237 239 242 245 243 237 238 243 244 238 236 244 255 255 249 246 246 249 251 256 262 263 264 264 260 259 262 266 270 275
218 219 221 224 229 234 236 237 236 238 241 242 241 243 247 249 245 240 241 243 241 235 236 246 254 255 250 245 245 248 251 255 260 262 265 265 260 259 263 265 269 273
219 219 220 221 225 230 232 233 237 240 242 245 245 246 248 246 244 244 244 242 238 234 238 248 253 253 250 248 248 248 251 256 258 257 260 260 256 258 262 264 266 270
220 220 219 218 221 225 227 231 237 241 242 243 246 249 249 247 245 249 251 246 238 234 240 250 252 251 251 251 251 250 252 257 259 258 260 260 257 259 263 264 264 266
221 221 220 219 222 226 228 230 235 239 242 244 247 250 251 250 247 250 254 249 239 236 242 250 251 251 252 252 252 252 254 256 258 260 261 262 261 261 262 263 264 265
221 222 222 221 224 228 230 231 234 237 239 242 245 249 250 249 248 249 250 247 239 235 239 245 248 248 248 250 252 254 256 257 256 261 263 262 261 260 260 263 265 267
221 222 222 221 223 227 229 231 234 236 237 238 241 246 247 248 249 249 249 246 239 235 238 242 247 249 248 250 254 257 261 261 259 261 264 263 262 260 260 262 265 267
220 220 221 220 220 223 225 227 231 235 238 237 236 241 245 247 248 247 247 247 242 240 243 245 250 254 252 249 252 257 260 259 256 258 261 262 263 262 262 264 266 266
217 217 219 219 217 219 221 222 226 231 235 235 231 233 240 245 245 241 243 248 245 245 248 249 252 255 253 250 254 258 259 256 253 254 255 258 260 261 262 264 265 264
217 217 218 217 216 218 220 221 223 225 229 231 228 229 234 241 242 238 240 246 244 245 249 250 251 252 251 250 253 256 257 256 255 253 253 255 258 261 261 261 261 261
225 221 219 217 218 219 220 221 222 223 225 227 228 229 231 234 237 235 235 239 238 238 243 247 249 250 249 249 250 252 254 253 252 252 252 254 258 260 261 260 259 259
234 231 225 221 220 221 222 221 221 222 223 224 226 229 229 228 229 229 231 235 236 235 237 243 246 247 248 249 248 249 252 251 250 251 252 254 256 257 258 257 257 258
233 236 236 232 225 224 224 223 222 222 222 223 224 225 227 226 224 225 230 233 237 237 237 241 246 246 247 250 249 247 249 250 249 249 249 252 253 254 254 255 255 257
226 228 230 232 230 227 225 224 224 224 221 221 222 222 225 226 224 225 229 233 235 238 241 243 247 248 248 250 251 249 247 247 248 249 249 251 252 252 253 255 255 254
223 227 228 227 227 229 231 230 225 223 222 220 221 224 226 227 227 227 229 232 235 240 246 247 246 246 248 250 252 251 249 247 246 248 249 249 250 252 253 255 255 254
225 233 233 230 228 230 233 233 228 224 222 220 221 224 225 227 230 232 233 235 236 242 249 249 246 250 254 255 255 254 254 252 250 251 253 251 251 253 254 255 254 253
225 233 235 232 229 227 229 230 230 226 222 220 221 222 224 229 233 235 237 237 237 241 245 245 248 258 263 263 261 260 258 255 254 254 255 255 252 252 254 255 255 254
223 231 238 236 230 229 229 226 226 227 225 223 222 221 224 229 231 233 236 238 238 240 245 245 250 261 268 269 268 267 262 257 253 250 251 252 250 251 253 254 255 257
225 225 230 231 228 231 233 227 220 223 227 227 226 226 228 229 229 230 235 238 237 240 244 246 250 260 270 273 273 272 268 260 253 251 252 252 250 251 254 255 256 257
228 221 219 222 225 230 237 235 222 214 219 225 229 231 230 229 228 231 235 239 240 243 247 251 255 263 271 275 274 272 270 263 256 253 253 252 251 252 254 256 255 255
218 210 206 213 221 226 234 237 230 220 220 226 233 237 236 236 236 234 237 241 242 243 247 250 254 261 272 280 276 270 265 261 256 251 248 247 249 252 254 256 256 255
206 199 193 198 205 208 217 228 232 228 224 226 233 241 249 260 259 250 243 245 244 241 241 244 247 254 272 290 283 268 258 256 254 251 250 249 249 251 254 257 258 257
183 182 174 174 181 190 206 225 234 234 232 235 237 235 242 261 273 273 266 262 260 254 248 248 251 256 269 290 286 267 253 249 250 250 251 252 252 253 256 258 259 259
143 149 146 148 154 161 175 201 224 239 255 258 251 242 234 237 257 276 282 282 281 276 265 255 252 255 259 270 281 278 264 253 252 253 254 255 256 257 259 261 262 262
105 116 122 129 129 123 127 149 213 264 276 264 249 247 249 251 264 272 273 273 274 275 274 273 269 263 259 258 268 278 280 271 265 263 261 261 261 261 262 264 266 267
77 87 91 97 97 91 85 71 25 311 296 282 261 252 255 256 256 267 273 273 267 266 275 281 272 263 264 264 266 272 277 276 272 269 267 268 268 266 267 268 268 268